QPF
0.01 0.00 0.00 0.00 0.00 0.01 0.01 0.01 0.01 0.01 0.01 0.02 0.04 0.05 0.05 0.04 0.03 0.03 0.03 0.02 0.02 0.03 0.04 0.05 0.05 0.05 0.05 0.04 0.03 0.02 0.02 0.02 0.02 0.02 0.02 0.02 0.02 0.02 0.03 0.02 0.02 0.03 0.04
0.00 0.00 0.00 0.00 0.00 0.01 0.01 0.01 0.01 0.01 0.01 0.02 0.02 0.03 0.04 0.04 0.04 0.03 0.03 0.03 0.03 0.03 0.03 0.04 0.04 0.04 0.05 0.06 0.05 0.04 0.02 0.02 0.02 0.02 0.02 0.02 0.02 0.02 0.02 0.03 0.03 0.03 0.03
0.00 0.00 0.00 0.00 0.00 0.01 0.01 0.01 0.01 0.01 0.01 0.01 0.01 0.01 0.02 0.04 0.04 0.03 0.03 0.03 0.03 0.03 0.03 0.03 0.03 0.04 0.04 0.04 0.04 0.04 0.04 0.03 0.02 0.02 0.02 0.02 0.02 0.02 0.02 0.02 0.03 0.03 0.03
0.00 0.00 0.00 0.00 0.00 0.00 0.01 0.01 0.01 0.01 0.01 0.01 0.01 0.01 0.01 0.01 0.02 0.02 0.03 0.03 0.03 0.02 0.02 0.03 0.03 0.03 0.04 0.04 0.04 0.04 0.04 0.04 0.04 0.03 0.02 0.02 0.02 0.02 0.02 0.02 0.02 0.02 0.02
0.01 0.01 0.01 0.01 0.01 0.01 0.01 0.01 0.01 0.01 0.01 0.01 0.01 0.01 0.01 0.01 0.01 0.02 0.02 0.02 0.02 0.02 0.02 0.02 0.02 0.02 0.03 0.04 0.04 0.05 0.05 0.05 0.04 0.04 0.03 0.03 0.02 0.02 0.01 0.01 0.01 0.02 0.02
0.00 0.00 0.01 0.01 0.01 0.01 0.01 0.01 0.02 0.02 0.02 0.02 0.02 0.02 0.01 0.02 0.02 0.02 0.02 0.02 0.02 0.02 0.02 0.02 0.02 0.02 0.02 0.03 0.04 0.05 0.05 0.06 0.05 0.04 0.04 0.03 0.02 0.01 0.01 0.01 0.01 0.01 0.01
0.00 0.00 0.00 0.01 0.01 0.02 0.02 0.02 0.02 0.02 0.02 0.02 0.02 0.02 0.02 0.02 0.02 0.02 0.02 0.02 0.02 0.01 0.01 0.01 0.01 0.01 0.02 0.02 0.03 0.04 0.05 0.06 0.05 0.05 0.05 0.04 0.02 0.02 0.02 0.02 0.02 0.02 0.01
0.00 0.00 0.00 0.00 0.01 0.01 0.01 0.02 0.02 0.02 0.02 0.02 0.02 0.02 0.02 0.02 0.02 0.02 0.02 0.02 0.01 0.01 0.01 0.01 0.01 0.01 0.01 0.02 0.02 0.03 0.03 0.04 0.05 0.05 0.05 0.04 0.03 0.03 0.03 0.03 0.02 0.02 0.02
0.00 0.00 0.00 0.00 0.00 0.01 0.01 0.01 0.01 0.01 0.01 0.01 0.01 0.02 0.03 0.03 0.03 0.03 0.02 0.02 0.02 0.01 0.01 0.02 0.02 0.02 0.02 0.03 0.02 0.02 0.02 0.02 0.03 0.04 0.05 0.05 0.04 0.04 0.04 0.04 0.03 0.03 0.02
0.00 0.00 0.00 0.00 0.00 0.00 0.00 0.01 0.01 0.01 0.01 0.01 0.01 0.02 0.02 0.04 0.05 0.04 0.04 0.02 0.02 0.02 0.02 0.02 0.02 0.02 0.03 0.03 0.02 0.02 0.02 0.02 0.02 0.02 0.03 0.04 0.05 0.04 0.04 0.04 0.03 0.03 0.02
0.00 0.00 0.00 0.00 0.00 0.00 0.00 0.01 0.01 0.01 0.01 0.01 0.01 0.01 0.02 0.03 0.03 0.03 0.03 0.03 0.03 0.02 0.02 0.02 0.02 0.03 0.03 0.02 0.02 0.02 0.02 0.02 0.02 0.02 0.03 0.03 0.03 0.04 0.04 0.03 0.03 0.03 0.03
0.00 0.00 0.00 0.00 0.00 0.00 0.00 0.01 0.01 0.01 0.01 0.01 0.01 0.02 0.02 0.03 0.02 0.02 0.02 0.02 0.03 0.03 0.02 0.02 0.02 0.03 0.03 0.03 0.03 0.03 0.03 0.02 0.02 0.03 0.03 0.02 0.02 0.02 0.03 0.03 0.03 0.02 0.02
0.00 0.00 0.00 0.00 0.00 0.00 0.01 0.01 0.01 0.01 0.01 0.01 0.01 0.01 0.01 0.02 0.02 0.02 0.02 0.02 0.03 0.03 0.02 0.03 0.03 0.03 0.03 0.03 0.02 0.02 0.02 0.02 0.02 0.02 0.02 0.02 0.02 0.02 0.02 0.03 0.03 0.03 0.02
0.00 0.00 0.00 0.00 0.00 0.00 0.01 0.01 0.01 0.01 0.01 0.01 0.01 0.01 0.01 0.01 0.01 0.02 0.02 0.02 0.02 0.03 0.03 0.03 0.03 0.03 0.02 0.02 0.02 0.02 0.02 0.02 0.02 0.02 0.02 0.02 0.02 0.02 0.02 0.02 0.02 0.02 0.02
0.00 0.00 0.00 0.00 0.00 0.01 0.01 0.01 0.01 0.01 0.01 0.01 0.01 0.01 0.01 0.01 0.01 0.01 0.01 0.01 0.02 0.02 0.02 0.03 0.02 0.02 0.02 0.02 0.02 0.02 0.02 0.02 0.02 0.02 0.02 0.02 0.02 0.02 0.02 0.02 0.02 0.02 0.02
0.00 0.00 0.00 0.00 0.00 0.01 0.01 0.01 0.01 0.02 0.02 0.02 0.02 0.02 0.02 0.02 0.02 0.02 0.02 0.02 0.02 0.02 0.03 0.02 0.02 0.02 0.02 0.02 0.02 0.02 0.02 0.02 0.02 0.02 0.02 0.02 0.01 0.01 0.02 0.02 0.02 0.02 0.01
0.00 0.00 0.00 0.00 0.00 0.00 0.01 0.01 0.01 0.01 0.02 0.02 0.02 0.02 0.03 0.03 0.03 0.03 0.03 0.03 0.02 0.02 0.02 0.02 0.01 0.01 0.02 0.02 0.02 0.02 0.02 0.02 0.02 0.02 0.02 0.01 0.01 0.01 0.01 0.01 0.02 0.02 0.01
0.00 0.00 0.00 0.00 0.00 0.01 0.01 0.01 0.01 0.01 0.01 0.02 0.02 0.02 0.03 0.03 0.03 0.04 0.03 0.03 0.03 0.02 0.02 0.02 0.01 0.01 0.01 0.02 0.02 0.02 0.02 0.02 0.02 0.02 0.02 0.02 0.01 0.01 0.01 0.01 0.01 0.01 0.01
0.01 0.01 0.01 0.01 0.01 0.01 0.01 0.01 0.01 0.01 0.01 0.02 0.02 0.02 0.02 0.02 0.03 0.03 0.02 0.02 0.02 0.01 0.02 0.02 0.02 0.02 0.02 0.02 0.02 0.02 0.02 0.01 0.01 0.02 0.02 0.02 0.01 0.01 0.01 0.01 0.01 0.01 0.01
0.01 0.01 0.01 0.01 0.01 0.01 0.01 0.01 0.01 0.02 0.02 0.02 0.02 0.02 0.02 0.02 0.02 0.02 0.02 0.02 0.02 0.02 0.02 0.02 0.02 0.01 0.02 0.01 0.02 0.02 0.01 0.01 0.01 0.01 0.02 0.02 0.02 0.01 0.01 0.01 0.01 0.01 0.01
0.01 0.01 0.01 0.01 0.01 0.01 0.01 0.01 0.02 0.02 0.02 0.02 0.02 0.02 0.02 0.01 0.01 0.01 0.02 0.02 0.02 0.02 0.02 0.02 0.01 0.01 0.01 0.01 0.01 0.01 0.01 0.01 0.01 0.01 0.01 0.01 0.02 0.02 0.02 0.02 0.01 0.01 0.01
0.01 0.01 0.01 0.01 0.01 0.01 0.02 0.02 0.02 0.02 0.03 0.03 0.03 0.03 0.02 0.02 0.02 0.01 0.01 0.02 0.02 0.02 0.01 0.01 0.01 0.01 0.01 0.01 0.01 0.01 0.01 0.01 0.01 0.01 0.01 0.01 0.01 0.01 0.01 0.01 0.02 0.02 0.01
0.01 0.01 0.01 0.01 0.01 0.02 0.02 0.02 0.02 0.03 0.03 0.03 0.03 0.03 0.03 0.02 0.02 0.02 0.02 0.01 0.01 0.01 0.01 0.01 0.01 0.01 0.01 0.01 0.01 0.01 0.01 0.01 0.01 0.01 0.01 0.01 0.01 0.01 0.01 0.01 0.01 0.01 0.01
0.01 0.01 0.01 0.01 0.01 0.02 0.02 0.02 0.03 0.03 0.03 0.03 0.03 0.03 0.02 0.02 0.02 0.02 0.02 0.02 0.01 0.01 0.01 0.01 0.01 0.01 0.01 0.01 0.01 0.01 0.01 0.01 0.01 0.01 0.01 0.01 0.01 0.01 0.01 0.01 0.01 0.01 0.01
0.01 0.01 0.01 0.01 0.01 0.02 0.02 0.02 0.03 0.03 0.03 0.03 0.03 0.03 0.03 0.02 0.02 0.02 0.02 0.02 0.01 0.01 0.01 0.01 0.01 0.01 0.01 0.01 0.01 0.01 0.01 0.01 0.01 0.01 0.01 0.01 0.01 0.01 0.01 0.01 0.01 0.01 0.01
0.01 0.01 0.01 0.01 0.01 0.02 0.02 0.02 0.03 0.03 0.03 0.03 0.03 0.03 0.03 0.03 0.03 0.03 0.02 0.02 0.01 0.01 0.01 0.01 0.01 0.01 0.01 0.01 0.01 0.01 0.01 0.01 0.01 0.01 0.01 0.01 0.01 0.01 0.01 0.01 0.01 0.01 0.01
MSLP
1033.73 1033.44 1033.17 1032.92 1032.70 1032.50 1032.33 1032.16 1031.97 1031.76 1031.50 1031.19 1030.83 1030.44 1030.05 1029.68 1029.38 1029.15 1029.02 1028.97 1028.98 1029.01 1029.01 1028.94 1028.76 1028.48 1028.08 1027.59 1027.06 1026.54 1026.06 1025.65 1025.33 1025.09 1024.89 1024.70 1024.49 1024.21 1023.84 1023.38 1022.85 1022.28 1021.70
1034.38 1034.11 1033.84 1033.58 1033.34 1033.13 1032.94 1032.77 1032.59 1032.38 1032.13 1031.84 1031.51 1031.15 1030.80 1030.49 1030.23 1030.07 1030.00 1030.01 1030.06 1030.12 1030.14 1030.08 1029.91 1029.61 1029.20 1028.71 1028.18 1027.67 1027.22 1026.84 1026.55 1026.33 1026.14 1025.94 1025.67 1025.30 1024.82 1024.23 1023.55 1022.82 1022.09
1034.97 1034.72 1034.46 1034.19 1033.95 1033.73 1033.54 1033.36 1033.19 1032.99 1032.76 1032.49 1032.18 1031.85 1031.53 1031.25 1031.04 1030.92 1030.89 1030.94 1031.04 1031.13 1031.18 1031.13 1030.97 1030.68 1030.28 1029.81 1029.31 1028.83 1028.42 1028.09 1027.83 1027.64 1027.46 1027.25 1026.94 1026.51 1025.94 1025.24 1024.43 1023.57 1022.69
1035.48 1035.25 1034.99 1034.72 1034.48 1034.26 1034.08 1033.92 1033.76 1033.59 1033.39 1033.14 1032.85 1032.55 1032.25 1031.99 1031.81 1031.71 1031.70 1031.77 1031.88 1031.99 1032.05 1032.02 1031.88 1031.62 1031.25 1030.81 1030.35 1029.92 1029.55 1029.27 1029.06 1028.90 1028.74 1028.53 1028.21 1027.75 1027.13 1026.37 1025.48 1024.52 1023.55
1035.89 1035.67 1035.42 1035.16 1034.92 1034.72 1034.56 1034.42 1034.30 1034.17 1034.00 1033.80 1033.54 1033.26 1032.98 1032.73 1032.54 1032.44 1032.42 1032.48 1032.59 1032.70 1032.77 1032.75 1032.62 1032.39 1032.06 1031.66 1031.26 1030.88 1030.56 1030.32 1030.15 1030.02 1029.90 1029.70 1029.40 1028.95 1028.33 1027.55 1026.65 1025.67 1024.66
1036.22 1036.00 1035.75 1035.50 1035.27 1035.10 1034.97 1034.88 1034.80 1034.73 1034.61 1034.45 1034.24 1033.98 1033.72 1033.47 1033.27 1033.14 1033.10 1033.13 1033.21 1033.30 1033.35 1033.34 1033.23 1033.02 1032.73 1032.38 1032.02 1031.69 1031.42 1031.23 1031.10 1031.00 1030.90 1030.74 1030.47 1030.06 1029.49 1028.75 1027.89 1026.94 1025.94
1036.46 1036.24 1035.99 1035.75 1035.54 1035.39 1035.31 1035.27 1035.26 1035.25 1035.20 1035.10 1034.93 1034.71 1034.46 1034.22 1034.00 1033.84 1033.76 1033.75 1033.79 1033.84 1033.87 1033.85 1033.75 1033.57 1033.31 1033.01 1032.70 1032.42 1032.19 1032.03 1031.93 1031.86 1031.79 1031.66 1031.44 1031.08 1030.57 1029.92 1029.14 1028.27 1027.34
1036.62 1036.40 1036.16 1035.93 1035.74 1035.63 1035.59 1035.61 1035.67 1035.73 1035.75 1035.71 1035.60 1035.42 1035.20 1034.96 1034.73 1034.55 1034.43 1034.37 1034.36 1034.38 1034.39 1034.35 1034.26 1034.10 1033.89 1033.63 1033.37 1033.13 1032.94 1032.80 1032.71 1032.66 1032.60 1032.50 1032.31 1032.01 1031.58 1031.02 1030.34 1029.57 1028.73
1036.69 1036.49 1036.26 1036.06 1035.90 1035.83 1035.84 1035.91 1036.03 1036.15 1036.23 1036.26 1036.20 1036.07 1035.88 1035.66 1035.43 1035.24 1035.09 1035.00 1034.97 1034.95 1034.94 1034.91 1034.84 1034.71 1034.53 1034.32 1034.10 1033.89 1033.73 1033.60 1033.52 1033.46 1033.40 1033.30 1033.13 1032.86 1032.49 1032.01 1031.42 1030.76 1030.02
1036.68 1036.51 1036.32 1036.14 1036.03 1035.99 1036.04 1036.16 1036.32 1036.49 1036.63 1036.70 1036.70 1036.61 1036.46 1036.27 1036.06 1035.88 1035.73 1035.63 1035.58 1035.57 1035.56 1035.54 1035.49 1035.39 1035.26 1035.10 1034.92 1034.75 1034.60 1034.48 1034.39 1034.31 1034.22 1034.10 1033.92 1033.66 1033.32 1032.89 1032.37 1031.79 1031.14
1036.58 1036.46 1036.32 1036.20 1036.13 1036.13 1036.21 1036.36 1036.55 1036.74 1036.90 1037.01 1037.04 1036.99 1036.88 1036.73 1036.56 1036.41 1036.29 1036.21 1036.18 1036.19 1036.20 1036.21 1036.20 1036.15 1036.07 1035.95 1035.82 1035.68 1035.54 1035.42 1035.31 1035.20 1035.07 1034.91 1034.70 1034.42 1034.07 1033.66 1033.18 1032.65 1032.06
1036.40 1036.35 1036.27 1036.21 1036.19 1036.23 1036.34 1036.50 1036.69 1036.88 1037.05 1037.16 1037.21 1037.19 1037.12 1037.01 1036.90 1036.79 1036.73 1036.70 1036.72 1036.77 1036.83 1036.88 1036.92 1036.92 1036.89 1036.83 1036.73 1036.62 1036.51 1036.38 1036.25 1036.11 1035.94 1035.72 1035.46 1035.15 1034.78 1034.35 1033.88 1033.37 1032.82
1036.15 1036.17 1036.17 1036.18 1036.21 1036.28 1036.40 1036.56 1036.73 1036.90 1037.04 1037.14 1037.19 1037.19 1037.15 1037.10 1037.04 1037.01 1037.01 1037.05 1037.14 1037.25 1037.37 1037.49 1037.58 1037.64 1037.66 1037.65 1037.60 1037.52 1037.42 1037.30 1037.16 1036.99 1036.78 1036.52 1036.22 1035.86 1035.46 1035.02 1034.54 1034.03 1033.50
1035.84 1035.94 1036.01 1036.08 1036.16 1036.26 1036.38 1036.52 1036.67 1036.80 1036.90 1036.97 1037.01 1037.01 1037.00 1036.99 1037.00 1037.05 1037.13 1037.26 1037.42 1037.61 1037.80 1037.98 1038.13 1038.25 1038.32 1038.34 1038.33 1038.29 1038.21 1038.11 1037.97 1037.79 1037.57 1037.29 1036.96 1036.58 1036.16 1035.70 1035.21 1034.70 1034.18
1035.51 1035.65 1035.78 1035.90 1036.01 1036.13 1036.26 1036.37 1036.48 1036.56 1036.63 1036.66 1036.68 1036.69 1036.70 1036.74 1036.82 1036.94 1037.11 1037.33 1037.58 1037.84 1038.10 1038.34 1038.54 1038.70 1038.81 1038.88 1038.90 1038.89 1038.85 1038.77 1038.65 1038.50 1038.28 1038.02 1037.70 1037.32 1036.90 1036.44 1035.96 1035.46 1034.93
1035.15 1035.31 1035.46 1035.61 1035.74 1035.87 1035.99 1036.08 1036.15 1036.20 1036.22 1036.23 1036.24 1036.26 1036.30 1036.39 1036.54 1036.74 1037.00 1037.30 1037.62 1037.96 1038.28 1038.56 1038.81 1039.00 1039.14 1039.24 1039.30 1039.32 1039.31 1039.27 1039.20 1039.08 1038.92 1038.70 1038.42 1038.08 1037.69 1037.26 1036.80 1036.31 1035.80
1034.78 1034.92 1035.06 1035.20 1035.33 1035.45 1035.56 1035.63 1035.68 1035.70 1035.71 1035.70 1035.71 1035.75 1035.84 1035.99 1036.21 1036.49 1036.83 1037.21 1037.60 1038.00 1038.37 1038.69 1038.96 1039.18 1039.34 1039.46 1039.54 1039.59 1039.62 1039.63 1039.61 1039.56 1039.46 1039.30 1039.09 1038.82 1038.50 1038.12 1037.69 1037.23 1036.74
1034.40 1034.46 1034.55 1034.65 1034.76 1034.87 1034.95 1035.02 1035.06 1035.07 1035.08 1035.09 1035.13 1035.21 1035.35 1035.57 1035.86 1036.22 1036.64 1037.09 1037.54 1037.99 1038.39 1038.74 1039.03 1039.26 1039.43 1039.56 1039.66 1039.74 1039.80 1039.86 1039.89 1039.91 1039.89 1039.82 1039.69 1039.50 1039.24 1038.93 1038.55 1038.13 1037.65
1033.98 1033.94 1033.94 1033.98 1034.05 1034.12 1034.19 1034.25 1034.29 1034.32 1034.35 1034.40 1034.48 1034.63 1034.84 1035.14 1035.50 1035.94 1036.43 1036.94 1037.45 1037.93 1038.36 1038.73 1039.02 1039.25 1039.43 1039.56 1039.66 1039.76 1039.86 1039.95 1040.04 1040.12 1040.17 1040.18 1040.13 1040.02 1039.84 1039.59 1039.27 1038.88 1038.43
1033.56 1033.38 1033.28 1033.23 1033.23 1033.26 1033.30 1033.35 1033.40 1033.46 1033.54 1033.64 1033.79 1034.01 1034.31 1034.68 1035.13 1035.64 1036.20 1036.76 1037.31 1037.82 1038.26 1038.63 1038.93 1039.15 1039.32 1039.45 1039.56 1039.66 1039.78 1039.90 1040.03 1040.15 1040.26 1040.33 1040.34 1040.30 1040.18 1039.99 1039.72 1039.37 1038.94
1033.15 1032.84 1032.61 1032.46 1032.39 1032.36 1032.37 1032.41 1032.47 1032.56 1032.68 1032.85 1033.07 1033.37 1033.75 1034.21 1034.73 1035.31 1035.91 1036.52 1037.09 1037.61 1038.06 1038.43 1038.72 1038.93 1039.09 1039.21 1039.31 1039.41 1039.53 1039.66 1039.81 1039.96 1040.10 1040.21 1040.27 1040.27 1040.21 1040.06 1039.83 1039.52 1039.12
1032.80 1032.37 1032.03 1031.78 1031.62 1031.53 1031.49 1031.51 1031.58 1031.69 1031.85 1032.07 1032.36 1032.73 1033.18 1033.70 1034.29 1034.91 1035.55 1036.18 1036.77 1037.29 1037.74 1038.09 1038.36 1038.55 1038.69 1038.80 1038.89 1038.98 1039.09 1039.22 1039.37 1039.53 1039.68 1039.80 1039.89 1039.92 1039.88 1039.77 1039.58 1039.31 1038.95
1032.60 1032.07 1031.63 1031.29 1031.04 1030.88 1030.79 1030.78 1030.82 1030.94 1031.12 1031.38 1031.72 1032.14 1032.63 1033.20 1033.82 1034.47 1035.13 1035.75 1036.33 1036.84 1037.26 1037.59 1037.83 1038.00 1038.12 1038.20 1038.27 1038.34 1038.43 1038.55 1038.68 1038.83 1038.98 1039.10 1039.19 1039.24 1039.22 1039.14 1038.99 1038.77 1038.47
1032.61 1032.01 1031.50 1031.08 1030.75 1030.52 1030.37 1030.30 1030.31 1030.41 1030.59 1030.85 1031.21 1031.65 1032.16 1032.74 1033.37 1034.02 1034.65 1035.26 1035.80 1036.27 1036.65 1036.94 1037.15 1037.28 1037.37 1037.42 1037.46 1037.51 1037.58 1037.67 1037.79 1037.91 1038.04 1038.16 1038.25 1038.31 1038.31 1038.26 1038.16 1037.99 1037.76
1032.86 1032.23 1031.68 1031.20 1030.80 1030.50 1030.28 1030.15 1030.11 1030.16 1030.31 1030.55 1030.89 1031.32 1031.82 1032.38 1032.98 1033.59 1034.18 1034.74 1035.22 1035.63 1035.95 1036.19 1036.34 1036.43 1036.48 1036.49 1036.50 1036.52 1036.56 1036.63 1036.72 1036.83 1036.94 1037.05 1037.14 1037.21 1037.24 1037.22 1037.17 1037.07 1036.92
1033.35 1032.72 1032.14 1031.63 1031.18 1030.82 1030.53 1030.33 1030.23 1030.22 1030.32 1030.51 1030.81 1031.19 1031.64 1032.15 1032.69 1033.23 1033.75 1034.22 1034.63 1034.96 1035.21 1035.37 1035.46 1035.49 1035.49 1035.46 1035.44 1035.42 1035.43 1035.47 1035.54 1035.62 1035.72 1035.83 1035.92 1036.00 1036.06 1036.09 1036.08 1036.05 1035.98
Thickness
5440 5441 5442 5443 5445 5446 5448 5450 5451 5453 5454 5455 5456 5457 5457 5457 5457 5457 5457 5457 5458 5458 5457 5457 5456 5455 5454 5453 5453 5452 5451 5450 5450 5451 5450 5450 5449 5448 5447 5446 5446 5446 5446
5427 5428 5429 5430 5432 5433 5435 5437 5438 5440 5441 5442 5443 5444 5444 5444 5444 5444 5444 5445 5445 5445 5444 5444 5443 5442 5441 5440 5440 5439 5438 5437 5436 5435 5436 5434 5434 5434 5433 5433 5433 5433 5433
5413 5414 5415 5417 5418 5420 5422 5423 5425 5427 5428 5429 5430 5431 5431 5431 5431 5432 5432 5432 5432 5432 5432 5431 5430 5429 5429 5427 5426 5426 5425 5424 5422 5421 5421 5421 5420 5419 5419 5419 5419 5419 5420
5399 5400 5401 5402 5404 5406 5408 5410 5412 5413 5414 5415 5417 5417 5418 5418 5418 5418 5418 5418 5418 5418 5419 5418 5418 5417 5417 5416 5414 5413 5412 5410 5409 5407 5407 5406 5405 5405 5404 5405 5405 5406 5407
5385 5385 5386 5388 5389 5391 5393 5395 5397 5399 5400 5401 5403 5403 5404 5404 5405 5404 5405 5405 5404 5405 5405 5405 5405 5404 5404 5403 5402 5401 5399 5398 5396 5395 5394 5393 5392 5390 5390 5390 5390 5392 5393
5370 5371 5372 5373 5374 5376 5378 5380 5382 5384 5385 5387 5388 5389 5389 5391 5391 5391 5392 5391 5391 5391 5392 5391 5391 5391 5391 5390 5389 5389 5388 5386 5385 5383 5383 5382 5381 5379 5378 5377 5376 5377 5379
5355 5356 5356 5357 5359 5361 5362 5364 5366 5368 5370 5371 5372 5373 5375 5376 5377 5378 5378 5377 5378 5378 5378 5378 5377 5377 5377 5376 5376 5376 5375 5374 5374 5373 5372 5372 5370 5368 5366 5364 5363 5363 5364
5341 5341 5341 5342 5344 5345 5346 5348 5349 5351 5353 5355 5357 5358 5360 5361 5362 5363 5363 5363 5363 5364 5364 5364 5363 5364 5363 5363 5363 5363 5362 5361 5361 5360 5361 5360 5358 5356 5354 5353 5352 5350 5350
5327 5327 5327 5328 5328 5329 5330 5331 5333 5335 5337 5339 5341 5343 5345 5346 5348 5349 5349 5349 5349 5350 5350 5350 5350 5350 5351 5350 5350 5350 5349 5348 5347 5346 5346 5346 5344 5343 5341 5339 5337 5336 5336
5313 5312 5312 5313 5314 5314 5316 5316 5318 5319 5321 5323 5325 5327 5329 5331 5333 5334 5334 5334 5335 5335 5336 5336 5336 5337 5337 5337 5336 5336 5336 5335 5333 5332 5332 5331 5330 5329 5328 5327 5326 5324 5323
5298 5298 5298 5298 5299 5300 5301 5302 5303 5304 5305 5307 5309 5311 5313 5315 5317 5318 5319 5319 5319 5320 5321 5321 5322 5323 5323 5323 5323 5323 5323 5321 5319 5318 5317 5316 5315 5315 5313 5313 5312 5312 5311
5285 5284 5284 5284 5284 5285 5286 5287 5288 5289 5290 5291 5293 5295 5297 5298 5301 5302 5304 5304 5305 5305 5306 5307 5308 5309 5309 5309 5309 5309 5308 5307 5305 5303 5302 5302 5302 5301 5300 5299 5298 5297 5297
5271 5270 5270 5270 5270 5271 5272 5273 5274 5275 5276 5277 5278 5280 5282 5284 5285 5287 5288 5290 5290 5291 5292 5293 5294 5294 5294 5294 5295 5294 5293 5291 5290 5289 5289 5288 5287 5286 5285 5285 5284 5284 5283
5259 5258 5258 5258 5258 5258 5258 5259 5260 5261 5263 5265 5265 5267 5269 5270 5272 5273 5274 5275 5276 5277 5277 5278 5279 5279 5279 5279 5278 5277 5277 5276 5276 5275 5274 5273 5273 5272 5272 5271 5271 5270 5269
5247 5246 5246 5246 5246 5246 5246 5247 5248 5250 5251 5253 5255 5256 5257 5259 5261 5262 5263 5264 5264 5265 5264 5263 5263 5262 5262 5262 5262 5262 5261 5261 5260 5260 5260 5260 5259 5259 5258 5257 5256 5256 5255
5237 5236 5235 5234 5234 5234 5235 5236 5237 5238 5240 5242 5243 5244 5246 5249 5250 5252 5252 5253 5254 5254 5251 5250 5249 5248 5248 5247 5247 5247 5247 5247 5247 5246 5246 5246 5246 5246 5245 5244 5243 5242 5241
5226 5225 5224 5224 5223 5223 5223 5223 5225 5228 5229 5230 5232 5234 5236 5238 5239 5240 5240 5241 5240 5239 5237 5236 5235 5234 5234 5233 5233 5233 5234 5233 5233 5233 5234 5234 5233 5232 5231 5231 5231 5230 5229
5216 5215 5214 5214 5213 5213 5212 5213 5213 5214 5216 5218 5220 5222 5224 5225 5226 5227 5227 5226 5224 5223 5222 5222 5221 5221 5221 5221 5220 5220 5220 5220 5220 5221 5221 5221 5220 5219 5218 5218 5218 5217 5217
5206 5206 5205 5204 5203 5203 5203 5203 5203 5203 5204 5206 5207 5210 5211 5212 5213 5213 5212 5211 5210 5210 5209 5209 5209 5208 5208 5208 5208 5208 5208 5208 5208 5208 5209 5209 5208 5207 5206 5206 5205 5204 5203
5197 5197 5195 5194 5194 5194 5194 5194 5194 5194 5195 5196 5197 5199 5199 5199 5199 5199 5198 5198 5198 5198 5197 5197 5197 5197 5197 5196 5196 5195 5195 5196 5196 5196 5197 5197 5197 5196 5195 5194 5193 5192 5191
5188 5187 5186 5185 5185 5186 5185 5185 5186 5186 5186 5187 5189 5190 5191 5189 5189 5188 5187 5187 5187 5187 5186 5186 5186 5186 5186 5185 5185 5185 5184 5185 5185 5185 5185 5185 5185 5184 5184 5182 5181 5180 5178
5179 5178 5177 5177 5177 5177 5177 5177 5177 5177 5178 5178 5179 5179 5181 5179 5178 5177 5177 5177 5176 5176 5176 5176 5176 5176 5176 5175 5175 5175 5175 5174 5175 5175 5174 5174 5174 5173 5172 5171 5169 5168 5166
5169 5169 5168 5167 5167 5168 5168 5168 5168 5168 5168 5169 5169 5169 5168 5168 5168 5168 5167 5167 5167 5166 5166 5166 5166 5166 5166 5166 5166 5166 5166 5166 5166 5165 5164 5164 5163 5162 5161 5159 5158 5157 5156
5159 5159 5158 5158 5158 5158 5158 5158 5158 5158 5158 5158 5158 5158 5158 5158 5158 5158 5157 5157 5157 5157 5157 5157 5157 5157 5157 5157 5157 5157 5157 5157 5156 5156 5155 5155 5154 5153 5151 5149 5148 5147 5145
5149 5148 5148 5147 5147 5147 5147 5147 5147 5147 5148 5148 5148 5148 5147 5147 5147 5148 5147 5147 5147 5148 5148 5148 5148 5148 5148 5148 5148 5148 5148 5147 5147 5147 5146 5145 5144 5143 5142 5140 5138 5136 5135
5137 5137 5137 5137 5137 5136 5137 5137 5137 5137 5137 5138 5138 5137 5137 5137 5137 5137 5138 5138 5138 5139 5139 5140 5140 5140 5139 5139 5139 5139 5139 5139 5139 5138 5138 5136 5135 5134 5132 5131 5129 5127 5125